sat.trackr.live / text

‹ back to catalog

STARLINK-1166

NORAD 45060 · 2020-006S

PAYLOAD ACTIVE UNKNOWN

§ Identity

Operator
Country
US
Launch date
2020-01-29
Launch site
AFETR
Launch vehicle
Mass (kg)
RCS (m²)

Purposes: comms

External: N2YO · Heavens-Above · Gunter

§ Orbital elements

Epoch: 2026-09-20T00:31:49.043424Z

Period
91.19 min
Inclination
53.0367°
Eccentricity
0.0003576
Mean motion
15.79066395 rev/d
Perigee alt
330.7 km
Apogee alt
335.5 km
Semi-major
6,711.2 km
B*
4.0842e-4
RAAN
43.0717°
Arg perigee
314.9090°
Mean anomaly
45.1640°
Rev number
36,703

§ Raw data

STARLINK-11661 45060U 20006S   26263.02209541  .00074216  00000+0  40842-3 0  99952 45060  53.0367  43.0717 0003576 314.9090  45.1640 15.79066395367030

JSON: /api/v1/satellites/45060 · /tle

For live sub-satellite position, see the globe view (requires WebGL).

§ Visibility from observer

Set your observer location to see the next 7 days of passes ≥ 10°. The values pass through the URL so the page stays shareable.

No JS? Fill the form by hand. The geolocation button needs JavaScript.